Home   Weather   Bentonville   Past weeks

Flag for USA Past Weather in Bentonville, Arkansas, USA — Yesterday and Last 2 Weeks

Now
66 °F

Sunny.


Feels Like: 66 °F
Forecast: 48 / 70 °F
Wind: 9 mph from Northeast

Location: Bentonville Weather Observing Station

Current Time: Sep 29, 2016 at 1:45:18 PM

Latest Report: Sep 29, 2016 at 1:15 PM


Visibility: 10 mi

Pressure: 30.32 "Hg

Humidity: 49%

Dew Point: 46 °F

Location of BentonvilleLocation

Past Weather in Bentonville — Graph

°F

Bentonville Temperature Yesterday

Maximum temperature yesterday: 77 °F (at 1:35 PM)
Minimum temperature yesterday: 55 °F (at 3:35 AM)
Average temperature yesterday: 64 °F

High & Low Weather Summary for the Past Weeks

 TemperatureHumidityPressure
High91 °F (Sep 20, 1:15 PM)88% (Sep 14, 9:55 PM)30.34 "Hg (Sep 14, 9:55 PM)
Low46 °F (Sep 27, 5:55 AM)26% (Sep 28, 3:35 PM)29.93 "Hg (Sep 16, 3:35 PM)
Average72 °F66%30.09 "Hg
* Reported Sep 14 12:15 PM — Sep 29 12:15 PM, Bentonville, Weather by CustomWeather, © 2016

Note: Actual official high and low records may vary slightly from our data, if they occured in-between our weather recording intervals... More about our weather records

Advertising

Bentonville Weather History for the Previous 24 Hours

Scroll right to see more
 ConditionsComfort  
Time TempWeatherWind HumidityBarometerVisibility
12:15 PM
Thu, Sep 29
64 °FSunny.14 mph52%30.33 "Hg5 mi
11:55 AM64 °FSunny.12 mph52%30.33 "Hg10 mi
11:35 AM64 °FSunny.13 mph52%30.34 "Hg10 mi
11:15 AM63 °FPassing clouds.12 mph56%30.34 "Hg10 mi
10:55 AM63 °FPassing clouds.10 mph56%30.34 "Hg10 mi
10:35 AM61 °FSunny.7 mph59%30.34 "Hg9 mi
10:15 AM59 °FPassing clouds.9 mph63%30.33 "Hg10 mi
9:55 AM57 °FSunny.6 mph67%30.33 "Hg10 mi
9:35 AM55 °FSunny.7 mph72%30.33 "Hg8 mi
9:15 AM54 °FSunny.8 mph77%30.32 "Hg10 mi
8:55 AM54 °FSunny.9 mph72%30.31 "Hg10 mi
8:35 AM52 °FSunny.8 mph77%30.31 "Hg10 mi
8:15 AM50 °FSunny.5 mph82%30.30 "Hg10 mi
7:55 AM48 °FSunny.6 mph82%30.30 "Hg10 mi
7:35 AM48 °FSunny.3 mph82%30.29 "Hg10 mi
7:15 AM48 °FSunny.5 mph82%30.28 "Hg10 mi
6:55 AM48 °FClear.3 mph82%30.28 "Hg10 mi
6:35 AM48 °FClear.No wind82%30.28 "Hg10 mi
6:15 AM48 °FClear.3 mph82%30.27 "Hg10 mi
5:55 AM48 °FClear.5 mph82%30.27 "Hg10 mi
5:35 AM48 °FClear.5 mph82%30.26 "Hg10 mi
5:15 AM48 °FClear.No wind82%30.26 "Hg10 mi
4:55 AM48 °FClear.No wind82%30.25 "Hg10 mi
4:35 AM50 °FClear.3 mph76%30.25 "Hg10 mi
4:15 AM52 °FClear.3 mph72%30.24 "Hg10 mi
3:55 AM52 °FClear.6 mph72%30.24 "Hg10 mi
3:35 AM52 °FClear.5 mph72%30.23 "Hg10 mi
3:15 AM52 °FClear.5 mph72%30.23 "Hg10 mi
2:55 AM52 °FClear.5 mph72%30.23 "Hg10 mi
2:35 AM52 °FClear.7 mph72%30.23 "Hg10 mi
2:15 AM54 °FClear.6 mph67%30.23 "Hg10 mi
1:55 AM54 °FClear.6 mph67%30.22 "Hg10 mi
1:35 AM54 °FClear.6 mph67%30.22 "Hg10 mi
1:15 AM54 °FClear.6 mph67%30.22 "Hg10 mi
12:55 AM55 °FClear.7 mph63%30.22 "Hg10 mi
12:35 AM55 °FClear.10 mph63%30.22 "Hg10 mi
12:15 AM55 °FClear.9 mph67%30.22 "Hg10 mi
11:55 PM
Wed, Sep 28
55 °FClear.10 mph67%30.21 "Hg10 mi
11:35 PM57 °FClear.10 mph63%30.20 "Hg10 mi
11:15 PM57 °FClear.9 mph63%30.20 "Hg10 mi
10:55 PM57 °FClear.7 mph63%30.19 "Hg10 mi
10:35 PM59 °FClear.10 mph59%30.19 "Hg10 mi
10:15 PM59 °FClear.12 mph59%30.18 "Hg10 mi
9:55 PM59 °FClear.13 mph59%30.17 "Hg10 mi
9:35 PM59 °FClear.10 mph59%30.16 "Hg10 mi
9:15 PM61 °FClear.12 mph55%30.16 "Hg10 mi
8:55 PM61 °FClear.9 mph55%30.16 "Hg10 mi
8:35 PM63 °FClear.9 mph52%30.15 "Hg10 mi
8:15 PM63 °FClear.12 mph52%30.14 "Hg10 mi
7:55 PM63 °FClear.10 mph52%30.13 "Hg10 mi
7:35 PM64 °FClear.9 mph49%30.13 "Hg10 mi
7:15 PM66 °FClear.9 mph43%30.11 "Hg10 mi
6:55 PM66 °FSunny.12 mph43%30.10 "Hg10 mi
6:35 PM70 °FSunny.12 mph38%30.10 "Hg10 mi
6:15 PM70 °FSunny.12 mph38%30.09 "Hg10 mi
5:55 PM72 °FSunny.13 mph36%30.09 "Hg10 mi
5:35 PM72 °FSunny.12 mph36%30.08 "Hg10 mi
5:15 PM73 °FSunny.16 mph33%30.07 "Hg10 mi
4:55 PM73 °FSunny.13 mph31%30.07 "Hg10 mi
4:35 PM75 °FSunny.15 mph27%30.06 "Hg10 mi
4:15 PM75 °FSunny.13 mph27%30.06 "Hg10 mi
3:55 PM75 °FSunny.13 mph27%30.05 "Hg10 mi
3:35 PM77 °FSunny.16 mph26%30.05 "Hg10 mi
3:15 PM77 °FSunny.13 mph32%30.04 "Hg10 mi
2:55 PM77 °FSunny.12 mph32%30.04 "Hg10 mi
2:35 PM77 °FSunny.12 mph34%30.04 "Hg10 mi
2:15 PM75 °FSunny.10 mph36%30.04 "Hg10 mi
1:55 PM77 °FSunny.10 mph36%30.04 "Hg10 mi
1:35 PM77 °FSunny.16 mph36%30.03 "Hg10 mi
1:15 PM75 °FSunny.12 mph44%30.03 "Hg10 mi
Weather by CustomWeather, © 2016

See weather overviewHow to use our weather pages